Wind_Speed
30 29 33 29 26 24 27 31 28 40 37 37 32 32 25 27 28 29 33 40 45 45 42 41 42 42 44 44 41 40 39 37 35 33 32 31 32 32 32 32 33 32 32 31
34 32 23 25 35 28 16 22 28 27 31 28 23 26 28 25 30 42 46 42 40 40 39 41 43 45 44 41 40 40 37 35 32 31 31 32 33 34 33 32 31 32 31 31
22 24 25 21 2 13 23 24 23 24 22 23 25 27 22 37 40 41 39 39 39 39 41 44 45 44 42 41 40 37 36 34 33 35 35 36 36 34 33 32 31 29 29 30
20 20 2 10 31 31 20 17 19 24 26 26 22 20 37 39 38 37 38 38 38 40 42 43 43 41 41 41 39 36 34 33 35 37 38 39 38 34 31 31 29 26 26 28
8 8 23 23 6 14 21 26 28 22 19 19 27 39 38 34 35 37 36 36 39 42 43 43 43 43 42 39 36 34 34 34 37 39 40 39 35 31 28 28 25 22 24 25
13 6 5 17 20 25 24 26 10 20 26 29 40 40 36 36 36 33 33 36 41 40 39 39 39 40 40 37 34 33 34 36 38 38 39 36 29 24 24 22 19 20 21 22
23 13 14 23 23 19 11 22 29 30 34 40 35 36 39 38 32 33 36 39 41 38 38 39 41 41 38 34 32 32 34 37 36 36 35 28 21 20 17 14 15 18 18 18
7 8 11 10 20 27 32 37 36 40 39 36 37 35 35 32 33 35 38 37 36 36 34 36 38 40 38 33 32 32 35 35 33 31 28 23 19 14 11 12 14 15 16 18
14 18 32 39 36 36 38 39 40 36 35 38 35 33 30 33 34 36 37 36 36 37 36 34 35 38 37 32 31 32 33 33 30 28 25 21 15 11 10 12 13 14 19 14
31 36 34 36 37 37 37 35 32 34 36 34 31 31 31 33 35 36 35 35 36 36 35 34 35 35 35 32 30 30 32 30 28 25 20 15 12 10 10 11 14 18 12 11
40 37 35 33 31 31 33 33 32 32 31 30 30 31 32 35 37 36 36 35 35 37 36 35 35 34 32 29 28 27 28 26 23 20 16 11 11 11 9 13 18 11 8 8
32 32 31 31 31 31 31 32 31 29 27 28 29 31 33 35 38 38 37 35 34 35 35 34 34 34 32 28 27 26 24 22 19 18 15 13 11 8 13 16 16 8 7 7
34 33 31 29 28 28 29 30 29 28 28 26 27 32 36 38 38 37 35 35 35 36 36 33 33 34 32 28 24 23 22 21 19 17 17 15 13 10 10 13 13 7 6 6
30 26 25 26 28 28 28 27 26 26 25 28 31 34 38 39 36 35 35 34 33 35 35 33 32 33 30 27 23 21 20 20 20 18 18 16 14 10 12 15 11 6 7 5
23 24 27 27 27 27 26 24 22 23 26 29 34 37 40 38 35 33 33 33 32 34 35 33 30 31 29 24 21 20 19 18 19 17 17 16 14 12 11 14 11 7 9 8
25 25 24 24 24 24 22 22 23 26 30 33 36 38 37 35 33 32 33 33 32 33 34 33 29 31 30 25 19 17 17 18 19 17 16 15 14 13 11 12 10 8 10 10
23 22 21 22 20 20 22 25 28 31 34 37 36 35 33 31 29 29 30 30 29 31 33 34 31 31 30 27 20 16 15 15 15 15 15 15 13 11 11 11 8 9 11 10
19 19 19 20 20 22 25 28 31 34 34 34 33 31 29 29 29 27 28 28 27 27 30 31 30 30 29 26 20 16 14 14 13 14 14 13 13 9 11 10 7 10 12 11
15 18 20 21 23 25 28 29 30 31 31 29 27 26 26 28 28 28 28 29 29 29 27 27 27 28 27 24 19 14 13 12 13 14 13 10 11 9 11 8 7 11 13 13
18 19 22 24 26 25 26 27 27 25 25 24 24 24 25 26 26 27 27 28 31 31 30 30 28 27 26 22 16 13 12 12 12 13 10 11 10 10 9 7 8 12 15 17
20 22 23 24 24 23 23 21 21 22 22 23 24 24 25 25 25 28 28 26 27 27 26 26 26 26 23 18 13 11 10 11 12 12 9 12 8 8 7 7 9 13 18 20
22 22 20 20 21 21 20 21 21 22 22 22 23 24 24 24 22 22 28 28 27 26 24 23 24 25 25 19 13 10 9 9 10 10 9 9 7 6 5 7 10 15 20 21
20 18 18 18 19 20 21 21 21 21 21 21 21 21 22 24 23 23 21 22 24 24 24 23 25 26 25 21 14 10 8 8 8 9 8 7 6 4 5 8 13 17 21 22
17 16 16 17 18 19 20 21 21 21 20 20 20 19 19 18 21 23 24 23 23 24 24 24 24 25 24 21 15 11 9 7 7 6 5 4 3 2 6 10 15 19 22 22
14 15 16 17 18 19 19 20 19 19 19 18 18 19 19 20 20 20 20 20 21 22 22 22 22 23 22 21 18 12 9 8 6 4 3 1 2 5 9 13 17 19 21 21
14 15 15 17 17 18 18 18 17 16 17 17 17 18 18 19 20 20 20 20 20 21 21 21 20 21 22 23 22 16 12 9 6 5 5 5 6 8 11 15 18 20 20 20
13 14 15 15 15 15 15 15 15 15 15 15 16 16 17 17 17 17 18 18 18 18 18 19 18 18 19 21 20 20 16 12 9 9 10 10 11 13 14 15 17 18 18 16
Wind_Direction
297 298 305 300 297 290 278 284 265 295 292 301 302 304 307 309 308 310 311 309 307 306 307 309 310 309 308 309 311 309 308 307 305 303 301 300 298 295 292 285 276 274 274 274
299 306 308 300 300 293 284 294 285 296 296 306 300 303 308 310 313 311 312 311 311 312 313 314 313 313 314 315 314 312 310 309 306 303 302 301 298 295 293 289 281 270 272 274
295 297 307 299 148 285 301 305 298 295 299 298 298 302 307 314 313 314 313 314 315 317 316 317 317 317 318 319 316 313 311 310 308 307 307 306 304 298 292 288 282 274 268 271
284 304 262 306 304 302 301 311 306 303 298 298 298 297 312 312 312 314 316 317 316 316 318 318 318 318 319 319 315 311 312 311 310 309 308 307 305 299 290 285 279 271 264 270
268 268 294 310 308 310 312 313 312 305 302 298 297 307 312 313 318 320 317 316 317 320 321 320 320 320 321 319 314 312 314 314 313 310 309 307 302 295 287 282 276 265 266 272
262 268 276 300 302 307 311 311 317 314 305 302 310 311 318 318 318 316 317 318 318 320 321 319 317 319 321 318 315 315 317 317 316 313 313 309 301 292 286 280 268 264 272 272
255 262 279 286 295 300 303 310 310 312 306 310 312 314 316 318 319 318 321 321 321 324 323 322 321 322 324 320 318 320 321 320 317 318 316 311 304 295 286 274 269 275 274 277
239 239 273 289 301 302 303 305 306 306 309 310 312 313 315 317 319 320 322 322 322 322 324 323 322 324 325 322 321 323 324 322 321 321 317 312 307 295 286 282 284 278 277 285
265 278 287 293 297 297 298 301 302 304 306 309 312 313 317 319 321 322 323 325 325 325 326 326 327 326 324 323 322 326 327 325 322 322 318 314 309 296 293 294 291 292 289 265
287 295 294 293 294 295 297 299 302 305 308 311 314 316 320 321 321 322 326 327 326 326 326 328 329 328 324 322 323 326 331 329 326 325 321 314 310 306 305 299 305 303 275 261
292 292 296 294 294 296 299 300 302 307 310 311 314 316 320 321 322 326 327 328 326 326 328 329 330 329 327 322 322 325 333 333 334 334 330 322 312 312 306 314 314 293 264 262
293 300 298 296 296 297 299 302 304 306 306 309 312 316 320 325 325 326 325 326 327 327 326 327 329 331 329 322 320 324 333 335 335 337 332 324 315 301 312 319 317 273 255 248
297 297 296 295 296 299 301 303 304 305 308 311 313 318 323 326 325 324 323 324 326 328 327 328 330 330 328 322 318 320 325 330 330 329 329 326 318 306 313 320 315 254 237 245
295 295 295 297 299 301 302 304 305 307 309 313 317 320 322 323 322 320 319 322 326 328 328 328 328 330 329 320 316 316 317 321 322 324 325 324 317 299 319 324 317 242 218 223
294 295 298 300 302 304 304 305 306 307 309 313 316 318 319 319 318 319 318 321 326 328 326 327 326 329 328 321 316 312 312 314 316 316 316 318 316 301 303 320 315 233 209 204
293 296 298 300 302 303 305 308 308 309 311 312 315 317 317 317 319 320 320 323 326 327 326 327 330 329 330 327 319 310 307 311 314 318 318 313 310 307 289 311 307 227 210 205
293 297 300 302 303 305 308 310 311 311 313 315 317 317 317 317 319 321 321 324 327 329 328 329 330 330 328 326 320 310 306 307 310 315 317 313 307 296 290 303 294 220 206 204
295 299 302 305 307 309 309 309 311 314 317 319 319 319 320 321 323 325 324 325 326 332 328 328 328 327 329 326 321 312 307 309 311 314 315 308 306 280 296 295 273 210 198 190
299 304 306 306 308 311 312 313 316 317 319 321 323 323 322 325 328 328 329 328 327 330 330 330 330 330 330 328 321 312 308 310 314 318 316 311 309 286 296 281 244 203 191 178
304 306 307 309 310 314 318 319 322 324 325 326 326 326 326 327 328 328 332 333 331 333 335 335 334 334 333 326 319 312 312 311 314 319 309 314 305 296 289 262 222 196 181 176
307 309 310 311 316 321 324 327 329 327 326 327 327 327 327 329 333 330 331 334 333 335 335 335 336 339 337 334 324 314 312 309 312 319 309 316 301 297 274 243 209 188 178 180
308 311 314 317 320 323 325 325 326 326 326 326 326 327 327 329 333 333 332 338 339 340 340 343 346 349 349 345 336 324 315 314 314 322 319 320 308 295 259 219 193 183 178 182
310 313 316 319 320 320 321 325 326 326 326 327 328 330 330 329 335 340 341 339 343 347 350 352 354 355 354 353 347 336 325 318 319 323 321 322 308 279 218 191 181 181 179 181
310 314 317 318 317 319 323 326 327 329 331 332 332 333 334 337 340 344 344 344 348 352 355 358 359 360 1 358 356 350 342 339 337 338 342 341 290 208 188 178 175 176 175 173
308 313 315 314 319 323 325 327 330 331 333 337 337 337 340 343 345 346 346 351 354 356 360 1 1 6 10 15 16 13 15 8 1 25 40 63 171 171 168 165 164 165 163 161
307 310 314 319 323 326 328 329 329 330 335 338 340 341 342 342 344 347 350 354 356 360 1 4 7 11 16 23 27 27 33 31 33 70 92 112 125 139 146 148 151 152 153 156
308 314 317 320 323 327 331 333 333 333 336 341 342 342 343 344 346 350 355 358 360 5 8 10 11 14 22 26 30 34 44 53 64 85 97 102 111 122 128 132 140 145 150 155
Height
3121 3117 3114 3110 3106 3106 3103 3102 3100 3088 3088 3085 3081 3076 3072 3069 3065 3060 3054 3049 3043 3036 3030 3025 3019 3013 3007 3001 2995 2988 2983 2979 2975 2971 2968 2964 2961 2958 2956 2953 2952 2951 2951 2952
3109 3108 3105 3100 3098 3096 3094 3092 3085 3083 3079 3080 3077 3073 3068 3063 3061 3055 3048 3040 3034 3028 3021 3016 3009 3002 2996 2991 2985 2979 2975 2970 2966 2963 2960 2956 2953 2949 2946 2943 2941 2941 2941 2941
3103 3101 3099 3091 3089 3089 3088 3085 3082 3077 3076 3073 3071 3069 3065 3060 3053 3047 3040 3033 3027 3021 3014 3007 2999 2993 2987 2982 2976 2971 2966 2961 2957 2953 2949 2945 2941 2938 2935 2933 2931 2930 2931 2932
3099 3096 3095 3088 3086 3083 3081 3081 3077 3075 3071 3068 3064 3063 3059 3051 3045 3040 3033 3026 3021 3014 3007 3000 2993 2986 2981 2975 2969 2963 2959 2954 2949 2944 2939 2935 2931 2928 2925 2923 2922 2922 2923 2923
3101 3092 3085 3080 3079 3079 3076 3073 3071 3069 3067 3065 3061 3055 3051 3046 3038 3031 3026 3021 3014 3008 2999 2991 2984 2977 2972 2968 2962 2956 2951 2946 2941 2935 2930 2925 2921 2918 2916 2914 2914 2914 2915 2915
3097 3095 3087 3078 3076 3074 3071 3065 3063 3061 3059 3056 3052 3045 3042 3037 3032 3026 3021 3015 3007 3002 2995 2987 2980 2973 2967 2960 2954 2950 2944 2939 2933 2927 2921 2915 2911 2909 2908 2907 2907 2908 2909 2908
3092 3090 3080 3075 3073 3071 3071 3070 3062 3057 3053 3048 3043 3040 3034 3028 3025 3020 3012 3006 2999 2994 2988 2979 2972 2966 2961 2954 2948 2943 2938 2932 2926 2920 2913 2908 2905 2903 2902 2902 2902 2903 2902 2902
3085 3085 3076 3072 3070 3072 3066 3059 3056 3051 3046 3042 3037 3031 3027 3023 3018 3012 3005 3000 2994 2988 2983 2975 2967 2959 2953 2947 2942 2937 2931 2925 2919 2914 2908 2904 2901 2899 2898 2898 2898 2898 2897 2897
3082 3077 3072 3068 3064 3061 3057 3053 3049 3045 3038 3033 3032 3026 3020 3016 3011 3006 2999 2992 2986 2980 2975 2970 2963 2953 2946 2941 2936 2931 2926 2919 2913 2908 2903 2900 2898 2897 2896 2895 2894 2893 2892 2892
3071 3067 3065 3063 3059 3054 3051 3048 3043 3039 3034 3029 3025 3020 3015 3011 3005 2998 2993 2986 2980 2974 2969 2963 2957 2949 2941 2935 2931 2926 2920 2914 2908 2904 2900 2897 2895 2894 2893 2893 2891 2889 2888 2889
3061 3059 3056 3054 3050 3047 3044 3040 3036 3031 3027 3021 3017 3016 3009 3005 2999 2992 2985 2980 2976 2968 2962 2956 2950 2944 2936 2931 2926 2922 2917 2911 2906 2901 2898 2896 2894 2893 2892 2890 2888 2886 2886 2886
3053 3052 3049 3047 3044 3040 3037 3034 3028 3025 3022 3016 3009 3008 3003 2999 2992 2985 2979 2974 2969 2964 2957 2951 2945 2938 2931 2927 2922 2917 2913 2909 2904 2901 2898 2895 2893 2892 2890 2888 2886 2884 2885 2885
3048 3045 3042 3039 3036 3033 3030 3028 3023 3019 3014 3012 3007 3002 2997 2991 2986 2980 2976 2969 2962 2957 2951 2945 2939 2933 2927 2922 2918 2914 2910 2906 2903 2900 2897 2894 2892 2890 2889 2887 2883 2883 2884 2885
3039 3037 3036 3033 3030 3027 3023 3020 3017 3014 3010 3004 3001 2996 2991 2986 2982 2975 2970 2964 2957 2951 2946 2940 2934 2928 2922 2917 2914 2910 2907 2903 2900 2897 2895 2892 2890 2888 2887 2885 2882 2882 2884 2885
3034 3032 3030 3027 3024 3021 3018 3015 3012 3009 3005 3002 2995 2989 2985 2980 2976 2970 2965 2959 2952 2946 2940 2935 2929 2923 2918 2913 2909 2906 2903 2900 2897 2895 2893 2890 2888 2886 2885 2884 2882 2882 2883 2886
3028 3026 3024 3021 3018 3016 3013 3010 3007 3004 3001 2995 2989 2983 2979 2974 2969 2964 2959 2953 2946 2941 2935 2929 2924 2918 2912 2908 2904 2902 2899 2896 2893 2891 2889 2888 2886 2884 2884 2882 2881 2881 2883 2886
3022 3020 3019 3016 3014 3011 3007 3005 3001 2997 2993 2989 2982 2977 2973 2969 2965 2959 2955 2949 2943 2936 2929 2923 2919 2914 2908 2903 2899 2897 2895 2893 2891 2889 2886 2885 2883 2882 2882 2880 2879 2880 2882 2885
3017 3016 3014 3012 3010 3006 3002 2998 2994 2990 2984 2981 2976 2972 2968 2963 2958 2954 2949 2945 2940 2935 2927 2921 2915 2909 2904 2898 2895 2892 2891 2889 2887 2886 2884 2882 2881 2880 2879 2878 2878 2879 2882 2885
3014 3012 3009 3007 3005 3002 2998 2994 2988 2982 2978 2974 2971 2968 2964 2959 2954 2949 2945 2939 2935 2929 2924 2918 2912 2906 2900 2894 2890 2888 2887 2886 2884 2882 2881 2879 2878 2878 2877 2876 2877 2878 2882 2886
3009 3008 3006 3003 2998 2995 2992 2988 2982 2978 2973 2971 2967 2964 2960 2955 2951 2946 2941 2936 2930 2923 2917 2912 2907 2902 2896 2891 2887 2885 2884 2883 2881 2880 2878 2877 2876 2875 2874 2874 2875 2878 2881 2886
3005 3001 3000 2998 2993 2989 2986 2983 2979 2975 2971 2967 2963 2960 2957 2952 2947 2942 2938 2934 2928 2922 2916 2910 2904 2898 2893 2888 2885 2883 2881 2880 2879 2877 2876 2874 2873 2873 2872 2873 2874 2877 2881 2885
3000 2995 2994 2992 2989 2986 2983 2979 2976 2972 2968 2964 2960 2957 2953 2949 2946 2941 2934 2930 2925 2919 2913 2908 2903 2897 2890 2886 2882 2881 2879 2878 2877 2875 2874 2872 2871 2871 2871 2872 2874 2877 2880 2885
2993 2991 2990 2987 2985 2982 2980 2976 2972 2968 2965 2961 2958 2955 2951 2946 2942 2938 2935 2930 2924 2917 2912 2907 2901 2896 2890 2885 2881 2879 2878 2876 2875 2873 2872 2871 2870 2870 2870 2871 2873 2876 2880 2884
2990 2987 2986 2984 2982 2979 2976 2971 2968 2965 2962 2959 2956 2953 2950 2946 2941 2936 2932 2927 2923 2917 2911 2906 2902 2897 2891 2886 2881 2878 2877 2875 2874 2872 2871 2870 2870 2870 2870 2871 2874 2877 2881 2885
2987 2984 2983 2981 2978 2975 2972 2969 2966 2962 2959 2957 2954 2951 2947 2943 2940 2936 2932 2927 2922 2918 2913 2908 2903 2898 2893 2887 2882 2879 2877 2876 2874 2873 2872 2872 2871 2871 2871 2873 2876 2879 2883 2887
2983 2981 2979 2977 2975 2971 2969 2966 2963 2961 2958 2955 2952 2949 2946 2943 2939 2935 2931 2927 2923 2918 2914 2909 2905 2901 2896 2891 2886 2883 2880 2878 2877 2876 2875 2875 2875 2875 2875 2877 2879 2882 2885 2889
2980 2977 2975 2974 2971 2969 2966 2964 2961 2959 2956 2954 2951 2949 2946 2942 2939 2935 2931 2927 2924 2920 2916 2911 2908 2904 2899 2895 2892 2888 2885 2883 2881 2880 2879 2879 2879 2880 2881 2882 2884 2886 2889 2892